Location: Whispering Pines Observatory
(39.4020°N, 104.7430°W)
Time: 06:02:58
(UTC-06:00)

MOS 1 Rocket - Visible Passes

Search period start: 28 May 2015 00:00
Search period end: 07 June 2015 00:00
Orbit: 614 x 834 km, 97.4° (Epoch: 27 May)

Date Brightness Start Highest point End Pass type
(mag) Time Alt. Az. Time Alt. Az. Time Alt. Az.
28 May 6.2 21:45:28 10° WSW 21:47:44 13° W 21:49:40 10° WNW visible
29 May 4.8 20:53:59 10° SSW 20:58:38 38° W 21:03:01 10° NNW visible
30 May 6.2 21:46:44 10° WSW 21:48:38 12° W 21:50:12 10° WNW visible
31 May 4.9 20:54:57 10° SSW 20:59:30 36° W 21:03:47 10° NNW visible
01 Jun 6.2 21:48:05 10° WSW 21:49:32 11° W 21:50:38 10° WNW visible
02 Jun 4.9 20:55:57 10° SSW 21:00:23 35° W 21:04:34 10° NNW visible
03 Jun 6.4 21:49:44 10° W 21:50:25 10° W 21:50:46 10° W visible
04 Jun 5.0 20:56:56 10° SSW 21:01:15 33° W 21:05:19 10° NNW visible
06 Jun 5.1 20:57:53 10° SSW 21:02:06 31° W 21:06:05 10° NNW visible
